Yankton, SD

6:01 PM CST on February 20, 2018 (GMT -0600)
Gurney Municipal

Weather History for KYKN - October, 2014

Change the Weather History Date:

Sunday, October 5, 2014

  Actual Average Record
Temperature  
Mean Temperature 48 °F -  
Max Temperature 62 °F 68 °F 87 °F (1975)
Min Temperature 35 °F 41 °F 26 °F (1988)
Degree Days  
Heating Degree Days 16    
Moisture  
Dew Point 41 °F    
Average Humidity 68    
Maximum Humidity 93    
Minimum Humidity 42    
Precipitation  
Precipitation 0.00 in - - ()
Sea Level Pressure  
Sea Level Pressure 29.71 in    
Wind  
Wind Speed 8 mph (WNW)    
Max Wind Speed 23 mph    
Max Gust Speed 30 mph    
Visibility 10 miles    
Events      
Averages and records for this station are not official NWS values.
T = Trace of Precipitation, MM = Missing Value Source: NWS Daily Summary

Daily Weather History Graph

Daily Weather History Graph

Search for Another Location

Airport or City:

Trip Planner

Search our weather history database for the weather conditions in past years. The results will help you decide how hot, cold, wet, or windy it might be!

Date:

Astronomy

Oct. 05, 2014 Rise Set
Actual Time 7:31 AM CDT 7:03 PM CDT
Civil Twilight 7:03 AM CDT 7:32 PM CDT
Nautical Twilight 6:30 AM CDT 8:04 PM CDT
Astronomical Twilight 5:57 AM CDT 8:37 PM CDT
Moon 5:25 PM CDT (10/5) 4:05 AM CDT (10/5)
Length of Visible Light 12h 28m
Length of Day
11h 32m
Waxing Gibbous, 89% of the Moon is Illuminated
Oct 5
Waxing Gibbous
Oct 8
Full
Oct 15
Last Quarter
Oct 23
New
Oct 30
First Quarter

Hourly Weather History & Observations

Time (CDT) Temp. Windchill Dew Point Humidity Pressure Visibility Wind Dir Wind Speed Gust Speed Precip Events Conditions
12:15 AM 48.2 °F - 33.8 °F 58% 29.78 in 10.0 mi West 10.4 mph - N/A   Mostly Cloudy
12:35 AM 48.2 °F - 33.8 °F 58% 29.76 in 10.0 mi Calm Calm - N/A   Mostly Cloudy
12:55 AM 46.4 °F 43.5 °F 37.4 °F 71% 29.76 in 10.0 mi SW 5.8 mph - N/A   Overcast
1:15 AM 46.4 °F 45.2 °F 37.4 °F 71% 29.74 in 10.0 mi SW 3.5 mph - N/A   Overcast
1:35 AM 46.4 °F 45.2 °F 37.4 °F 71% 29.75 in 10.0 mi West 3.5 mph - N/A   Overcast
1:55 AM 46.4 °F 45.2 °F 35.6 °F 66% 29.74 in 10.0 mi SW 3.5 mph - N/A   Overcast
2:15 AM 46.4 °F - 37.4 °F 71% 29.74 in 10.0 mi Calm Calm - N/A   Overcast
2:35 AM 46.4 °F - 39.2 °F 76% 29.74 in 10.0 mi Calm Calm - N/A   Overcast
2:55 AM 46.4 °F - 37.4 °F 71% 29.73 in 10.0 mi Calm Calm - N/A   Mostly Cloudy
3:15 AM 46.4 °F - 39.2 °F 76% 29.73 in 10.0 mi Calm Calm - N/A   Mostly Cloudy
3:35 AM 46.4 °F - 39.2 °F 76% 29.73 in 10.0 mi Calm Calm - N/A   Scattered Clouds
3:55 AM 44.6 °F 42.2 °F 37.4 °F 76% 29.73 in 10.0 mi NNW 4.6 mph - N/A   Mostly Cloudy
4:15 AM 42.8 °F - 39.2 °F 87% 29.72 in 10.0 mi Calm Calm - N/A   Overcast
4:35 AM 44.6 °F - 39.2 °F 81% 29.72 in 10.0 mi Calm Calm - N/A   Overcast
4:55 AM 44.6 °F - 39.2 °F 81% 29.72 in 10.0 mi Calm Calm - N/A   Overcast
5:15 AM 42.8 °F - 37.4 °F 81% 29.72 in 10.0 mi Calm Calm - N/A   Mostly Cloudy
5:35 AM 39.2 °F - 35.6 °F 87% 29.72 in 10.0 mi Calm Calm - N/A   Clear
5:55 AM 39.2 °F - 37.4 °F 93% 29.72 in 10.0 mi Calm Calm - N/A   Clear
6:15 AM 39.2 °F - 37.4 °F 93% 29.72 in 10.0 mi Calm Calm - N/A   Clear
6:35 AM 37.4 °F 33.8 °F 33.8 °F 87% 29.73 in 10.0 mi WNW 4.6 mph - N/A   Clear
6:55 AM 39.2 °F 35.9 °F 37.4 °F 93% 29.73 in 10.0 mi West 4.6 mph - N/A   Clear
7:15 AM 35.6 °F 31.7 °F 33.8 °F 93% 29.73 in 10.0 mi WNW 4.6 mph - N/A   Clear
7:35 AM 37.4 °F - 33.8 °F 87% 29.73 in 10.0 mi Calm Calm - N/A   Clear
7:55 AM 39.2 °F 35.9 °F 33.8 °F 81% 29.73 in 10.0 mi WNW 4.6 mph - N/A   Clear
8:15 AM 37.4 °F 34.9 °F 33.8 °F 87% 29.73 in 10.0 mi WNW 3.5 mph - N/A   Clear
8:35 AM 42.8 °F 37.5 °F 37.4 °F 81% 29.74 in 10.0 mi West 9.2 mph - N/A   Clear
8:55 AM 44.6 °F 38.4 °F 37.4 °F 76% 29.74 in 10.0 mi West 12.7 mph 17.3 mph N/A   Clear
9:15 AM 46.4 °F 40.7 °F 37.4 °F 71% 29.74 in 10.0 mi West 12.7 mph - N/A   Clear
9:35 AM 50.0 °F - 39.2 °F 66% 29.74 in 10.0 mi West 15.0 mph 21.9 mph N/A   Clear
9:55 AM 51.8 °F - 39.2 °F 62% 29.74 in 10.0 mi West 17.3 mph 23.0 mph N/A   Mostly Cloudy
10:15 AM 53.6 °F - 39.2 °F 58% 29.74 in 10.0 mi West 17.3 mph 23.0 mph N/A   Partly Cloudy
10:35 AM 55.4 °F - 39.2 °F 54% 29.73 in 10.0 mi WNW 13.8 mph 20.7 mph N/A   Clear
10:55 AM 57.2 °F - 39.2 °F 51% 29.74 in 10.0 mi WNW 17.3 mph - N/A   Clear
11:15 AM 57.2 °F - 39.2 °F 51% 29.73 in 10.0 mi WNW 19.6 mph 25.3 mph N/A   Clear
11:35 AM 57.2 °F - 39.2 °F 51% 29.73 in 10.0 mi West 19.6 mph 24.2 mph N/A   Clear
11:55 AM 59.0 °F - 42.8 °F 55% 29.73 in 10.0 mi WNW 23.0 mph 28.8 mph N/A   Clear
12:15 PM 60.8 °F - 41.0 °F 48% 29.73 in 10.0 mi NW 18.4 mph 29.9 mph N/A   Partly Cloudy
12:35 PM 60.8 °F - 41.0 °F 48% 29.73 in 10.0 mi WNW 19.6 mph 26.5 mph N/A   Scattered Clouds
12:55 PM 60.8 °F - 41.0 °F 48% 29.73 in 10.0 mi West 18.4 mph 27.6 mph N/A   Mostly Cloudy
1:15 PM 59.0 °F - 39.2 °F 48% 29.72 in 10.0 mi NW 18.4 mph 25.3 mph N/A   Partly Cloudy
1:35 PM 60.8 °F - 41.0 °F 48% 29.72 in 10.0 mi NW 20.7 mph 26.5 mph N/A   Partly Cloudy
1:55 PM 60.8 °F - 39.2 °F 45% 29.71 in 10.0 mi WNW 16.1 mph 23.0 mph N/A   Scattered Clouds
2:15 PM 62.6 °F - 41.0 °F 45% 29.70 in 10.0 mi WNW 16.1 mph - N/A   Scattered Clouds
2:35 PM 62.6 °F - 41.0 °F 45% 29.69 in 10.0 mi WNW 17.3 mph 25.3 mph N/A   Partly Cloudy
2:55 PM 62.6 °F - 39.2 °F 42% 29.69 in 10.0 mi West 17.3 mph 25.3 mph N/A   Scattered Clouds
3:15 PM 62.6 °F - 41.0 °F 45% 29.68 in 10.0 mi WNW 12.7 mph 20.7 mph N/A   Mostly Cloudy
3:35 PM 60.8 °F - 41.0 °F 48% 29.68 in 10.0 mi NW 11.5 mph - N/A   Overcast
3:55 PM 57.2 °F - 44.6 °F 63% 29.69 in 10.0 mi NW 16.1 mph 27.6 mph N/A   Overcast
4:15 PM 57.2 °F - 48.2 °F 72% 29.69 in 10.0 mi West 12.7 mph 21.9 mph N/A   Scattered Clouds
4:35 PM 59.0 °F - 46.4 °F 63% 29.68 in 10.0 mi West 11.5 mph - N/A   Clear
4:55 PM 60.8 °F - 46.4 °F 59% 29.67 in 10.0 mi West 11.5 mph - N/A   Clear
5:15 PM 60.8 °F - 46.4 °F 59% 29.67 in 10.0 mi West 15.0 mph 20.7 mph N/A   Clear
5:35 PM 60.8 °F - 48.2 °F 63% 29.67 in 10.0 mi West 11.5 mph - N/A   Clear
5:55 PM 60.8 °F - 46.4 °F 59% 29.67 in 10.0 mi West 13.8 mph 17.3 mph N/A   Scattered Clouds
6:15 PM 59.0 °F - 48.2 °F 67% 29.66 in 10.0 mi WSW 12.7 mph - N/A   Scattered Clouds
6:35 PM 57.2 °F - 46.4 °F 67% 29.66 in 10.0 mi WSW 11.5 mph - N/A   Scattered Clouds
6:55 PM 57.2 °F - 48.2 °F 72% 29.66 in 10.0 mi WSW 10.4 mph - N/A   Scattered Clouds
7:15 PM 57.2 °F - 48.2 °F 72% 29.67 in 10.0 mi West 10.4 mph - N/A   Mostly Cloudy
7:35 PM 55.4 °F - 46.4 °F 72% 29.69 in 10.0 mi NW 13.8 mph - N/A   Mostly Cloudy
7:55 PM 55.4 °F - 46.4 °F 72% 29.69 in 10.0 mi WNW 9.2 mph - N/A   Mostly Cloudy
8:15 PM 53.6 °F - 44.6 °F 72% 29.69 in 10.0 mi WNW 6.9 mph - N/A   Mostly Cloudy
8:35 PM 55.4 °F - 46.4 °F 72% 29.69 in 10.0 mi West 5.8 mph - N/A   Mostly Cloudy
8:55 PM 53.6 °F - 46.4 °F 77% 29.70 in 10.0 mi West 5.8 mph - N/A   Mostly Cloudy
9:15 PM 53.6 °F - 46.4 °F 77% 29.69 in 10.0 mi West 8.1 mph - N/A   Mostly Cloudy
9:35 PM 51.8 °F - 44.6 °F 76% 29.69 in 10.0 mi West 9.2 mph - N/A   Partly Cloudy
9:55 PM 51.8 °F - 44.6 °F 76% 29.69 in 10.0 mi West 8.1 mph - N/A   Clear
10:15 PM 51.8 °F - 44.6 °F 76% 29.69 in 10.0 mi West 9.2 mph - N/A   Clear
10:35 PM 51.8 °F - 44.6 °F 76% 29.69 in 10.0 mi West 9.2 mph - N/A   Clear
10:55 PM 50.0 °F - 44.6 °F 82% 29.69 in 10.0 mi West 11.5 mph - N/A   Clear
11:15 PM 51.8 °F - 44.6 °F 76% 29.69 in 10.0 mi West 10.4 mph - N/A   Clear
11:35 PM 51.8 °F - 44.6 °F 76% 29.69 in 10.0 mi West 10.4 mph - N/A   Clear
11:55 PM 50.0 °F - 42.8 °F 76% 29.69 in 10.0 mi West 9.2 mph - N/A   Clear